Voltar ao catálogo

QIANFAN-111

AtivoComunicaçõesPO
NORAD 68638·PAYLOAD·🇨🇳 China

Lançado Apr 7, 2026 de Wenchang Space Launch Site

Loading…

Próximas Passagens (próximas 24 horas)

TLE

AtualizadoSource: Space-Track

Época: Sep 14, 2026, 14:33 UTC

1 68638U 26075C   26257.60633736  .00000061  00000-0  76247-4 0  9994
2 68638  88.9873 311.8704 0002259  98.2093 261.9315 13.51020888 21881

Acompanhe QIANFAN-111 em tempo real com AllMySat

Download on the App Store